Flag for U.S.A. Weather past 2 weeks in Mobile, Alabama, U.S.A.

Now
74 °F

Mostly cloudy.


Feels Like: 71 °F
Forecast: 71 / 83 °F
Wind: 9 mph from Northeast

Location: Mobile Downtown Airport

Current Time: May 29, 2015 at 6:21:16 AM

Latest Report: May 29, 2015 at 6:00 AM


Visibility: 10 mi

Pressure: 30.10 "Hg

Humidity: 94%

Dew point: 72 °F

Location of MobileLocation

Historic Weather in Mobile — Graph

°F

Mobile temperature yesterday

Maximum temperature yesterday: 81 °F (at 11:53 AM)
Minimum temperature yesterday: 74 °F (at 4:53 AM)
Average temperature yesterday: 77 °F

Past Weeks' High & Low Weather Summary

 TemperatureHumidityPressure
High89 °F (May 20, 12:53 PM)97% (May 26, 8:53 AM)30.26 "Hg (May 26, 8:53 AM)
Low61 °F (May 22, 6:53 AM)42% (May 22, 2:53 PM)29.97 "Hg (May 20, 2:53 PM)
Average78 °F78%30.12 "Hg
* Reported May 14 4:53 AM — May 29 4:53 AM, Mobile, Weather by CustomWeather, © 2015

Note: Actual official high and low records may vary slightly from our data, if they occured in-between our weather recording intervals... More about our weather records

Advertising

Mobile weather history for previous 24 hours

 ConditionsComfort  
Time TempWeatherWind HumidityBarometerVisibility
4:53 AM
Fri, May 29
75 °FMostly cloudy.No wind94%30.07 "Hg10 mi
4:02 AM75 °FPassing clouds.8 mph90%30.06 "Hg10 mi
3:53 AM75 °FClear.5 mph90%30.06 "Hg10 mi
2:53 AM75 °FClear.12 mph88%30.05 "Hg10 mi
1:53 AM75 °FClear.12 mph88%30.06 "Hg10 mi
12:53 AM75 °FClear.8 mph90%30.08 "Hg10 mi
11:53 PM
Thu, May 28
76 °FMostly cloudy.13 mph91%30.11 "Hg10 mi
10:53 PM77 °FClear.9 mph82%30.13 "Hg10 mi
9:53 PM77 °FClear.6 mph82%30.13 "Hg10 mi
8:53 PM77 °FPassing clouds.6 mph82%30.11 "Hg10 mi
7:53 PM77 °FSunny.7 mph82%30.10 "Hg10 mi
6:53 PM78 °FPassing clouds.7 mph82%30.09 "Hg10 mi
6:02 PM79 °FThundershowers. Partly sunny.3 mph79%30.10 "Hg10 mi
4:53 PM81 °FThundershowers. Sunny.10 mph74%30.09 "Hg10 mi
3:53 PM80 °FScattered clouds.9 mph76%30.10 "Hg10 mi
2:53 PM79 °FScattered clouds.7 mph74%30.10 "Hg10 mi
1:53 PM79 °FBroken clouds.7 mph77%30.12 "Hg10 mi
12:53 PM81 °FThundershowers. Broken clouds.12 mph69%30.14 "Hg10 mi
11:53 AM81 °FBroken clouds.7 mph79%30.14 "Hg10 mi
10:53 AM80 °FScattered clouds.6 mph81%30.15 "Hg10 mi
9:53 AM79 °FPartly sunny.9 mph88%30.14 "Hg10 mi
8:53 AM76 °FLow clouds.6 mph91%30.15 "Hg10 mi
7:53 AM76 °FLight rain. Partly sunny.7 mph94%30.14 "Hg10 mi
6:53 AM74 °FBroken clouds.3 mph94%30.14 "Hg10 mi
Weather by CustomWeather, © 2015

See weather overviewHow to use our weather pages